GBPCK BGGH-BIKF

Flight info

Callsign GBPCK
Flight time N/A
Altitude 45000
Route EVULO1A EVULO DCT DEVNU DCT GOKIK DCT GIRUG GIRUG4N
Aircraft C750/M-SBDE3FGHRWXY/S

Departure

Time 2026-05-04 20:14
Airport Nuuk International Airport (BGGH)

Arrival

Time N/A
Airport Keflavik International Airport (BIKF)
Time Latitude Longitude Altitude Speed Heading
2026-05-04 20:03 64.19133 -51.67440 278 ft 0 kts 251°
2026-05-04 20:09 64.19127 -51.67477 278 ft 8 kts 248°
2026-05-04 20:10 64.19062 -51.67570 278 ft 15 kts 204°
2026-05-04 20:10 64.18959 -51.67656 278 ft 17 kts 199°
2026-05-04 20:10 64.18851 -51.67734 278 ft 16 kts 201°
2026-05-04 20:10 64.18752 -51.67816 278 ft 14 kts 193°
2026-05-04 20:11 64.18657 -51.67860 278 ft 14 kts 190°
2026-05-04 20:11 64.18576 -51.67935 278 ft 12 kts 201°
2026-05-04 20:11 64.18527 -51.67948 278 ft 0 kts 87°
2026-05-04 20:11 64.18546 -51.67943 278 ft 6 kts
2026-05-04 20:12 64.18617 -51.67948 278 ft 13 kts 316°
2026-05-04 20:12 64.18648 -51.68166 278 ft 15 kts 278°
2026-05-04 20:12 64.18563 -51.68316 280 ft 21 kts 194°
2026-05-04 20:12 64.18403 -51.68430 280 ft 25 kts 199°
2026-05-04 20:13 64.18240 -51.68534 276 ft 21 kts 168°
2026-05-04 20:13 64.18148 -51.68598 276 ft 9 kts 296°
2026-05-04 20:13 64.18174 -51.68610 276 ft 0 kts 17°
2026-05-04 20:14 64.18375 -51.68464 279 ft 83 kts 18°
2026-05-04 20:14 64.19174 -51.67881 380 ft 142 kts 19°
2026-05-04 20:14 64.20212 -51.67094 687 ft 172 kts 19°
2026-05-04 20:14 64.21484 -51.66599 1012 ft 201 kts
2026-05-04 20:15 64.22892 -51.67263 1564 ft 213 kts 334°
2026-05-04 20:15 64.23961 -51.69610 2286 ft 218 kts 301°
2026-05-04 20:15 64.24294 -51.72969 2983 ft 218 kts 265°
2026-05-04 20:15 64.23782 -51.76138 3665 ft 220 kts 233°
2026-05-04 20:16 64.22480 -51.78223 3993 ft 246 kts 196°
2026-05-04 20:16 64.20749 -51.78290 4864 ft 249 kts 174°
2026-05-04 20:16 64.19038 -51.77774 5897 ft 250 kts 173°
2026-05-04 20:16 64.17285 -51.77277 6657 ft 256 kts 173°
2026-05-04 20:17 64.15498 -51.76825 7468 ft 260 kts 174°
2026-05-04 20:17 64.13680 -51.76342 8319 ft 265 kts 173°
2026-05-04 20:17 64.11931 -51.74822 9035 ft 275 kts 151°
2026-05-04 20:17 64.10289 -51.72517 9899 ft 279 kts 151°
2026-05-04 20:18 64.08579 -51.70227 10455 ft 295 kts 152°
2026-05-04 20:18 64.06741 -51.67697 10583 ft 324 kts 146°
2026-05-04 20:18 64.05259 -51.63521 10654 ft 354 kts 117°
2026-05-04 20:18 64.04691 -51.58063 11472 ft 358 kts 94°
2026-05-04 20:19 64.05071 -51.52408 12177 ft 365 kts 76°
2026-05-04 20:19 64.05836 -51.46840 12880 ft 369 kts 72°
2026-05-04 20:19 64.06634 -51.41230 13542 ft 374 kts 74°
2026-05-04 20:19 64.07455 -51.34312 14278 ft 381 kts 76°
2026-05-04 20:20 64.08885 -51.22495 15450 ft 390 kts 74°
2026-05-04 20:20 64.11154 -51.11156 16536 ft 399 kts 57°
2026-05-04 20:20 64.16085 -50.92574 18669 ft 415 kts 58°
2026-05-04 20:20 64.22161 -50.69445 21080 ft 431 kts 58°
2026-05-04 20:21 64.28424 -50.45312 23475 ft 448 kts 56°
2026-05-04 20:21 64.34776 -50.20551 25335 ft 465 kts 56°
2026-05-04 20:21 64.42660 -49.61291 28705 ft 507 kts 77°
2026-05-04 20:22 64.44951 -49.35777 30068 ft 522 kts 77°
2026-05-04 20:22 64.46384 -49.19135 30834 ft 530 kts 77°
2026-05-04 20:22 64.47832 -49.02624 31829 ft 531 kts 77°
2026-05-04 20:22 64.49276 -48.85579 32883 ft 533 kts 76°
2026-05-04 20:23 64.50677 -48.69003 33910 ft 534 kts 76°
2026-05-04 20:23 64.51736 -48.56258 34703 ft 533 kts 76°
2026-05-04 20:23 64.52424 -48.47846 35347 ft 529 kts 76°
2026-05-04 20:23 64.53086 -48.39749 35991 ft 525 kts 76°
2026-05-04 20:24 64.53344 -48.36592 36243 ft 524 kts 77°
2026-05-04 20:24 64.53709 -48.32097 36617 ft 522 kts 77°
2026-05-04 20:24 64.54305 -48.24707 37227 ft 518 kts 77°
2026-05-04 20:24 64.54906 -48.17187 37857 ft 515 kts 77°
2026-05-04 20:25 64.55482 -48.09929 38482 ft 511 kts 77°
2026-05-04 20:25 64.56023 -48.03083 39024 ft 508 kts 77°
2026-05-04 20:25 64.56552 -47.96367 39450 ft 507 kts 77°
2026-05-04 20:25 64.57066 -47.89785 39858 ft 505 kts 77°
2026-05-04 20:26 64.57536 -47.83713 40217 ft 504 kts 77°
2026-05-04 20:26 64.58026 -47.77359 40584 ft 503 kts 77°
2026-05-04 20:26 64.58464 -47.71651 40914 ft 502 kts 78°
2026-05-04 20:26 64.58923 -47.65640 41259 ft 501 kts 78°
2026-05-04 20:27 64.59341 -47.60125 41570 ft 500 kts 78°
2026-05-04 20:27 64.59754 -47.54648 41899 ft 499 kts 78°
2026-05-04 20:27 64.60167 -47.49145 42215 ft 498 kts 78°
2026-05-04 20:27 64.60568 -47.43774 42509 ft 498 kts 78°
2026-05-04 20:28 64.60953 -47.38602 42780 ft 497 kts 78°
2026-05-04 20:28 64.61334 -47.33452 43062 ft 497 kts 78°
2026-05-04 20:28 64.61671 -47.28861 43318 ft 496 kts 78°
2026-05-04 20:28 64.62039 -47.23844 43585 ft 496 kts 79°